TimeEDT,TemperatureF,Dew PointF,Humidity,Sea Level PressureIn,VisibilityMPH,Wind Direction,Wind SpeedMPH,Gust SpeedMPH,PrecipitationIn,Events,Conditions,WindDirDegrees,DateUTC
12:15 AM,41.0,39.2,93,29.79,0.2,Calm,Calm,-,N/A,,Overcast,0,2013-04-01 04:15:00
12:35 AM,41.0,41.0,100,29.79,0.2,Calm,Calm,-,N/A,,Overcast,0,2013-04-01 04:35:00
1:15 AM,41.0,41.0,100,29.79,0.2,Calm,Calm,-,N/A,,Overcast,0,2013-04-01 05:15:00
1:35 AM,42.8,41.0,93,29.79,0.2,Calm,Calm,-,N/A,,Overcast,0,2013-04-01 05:35:00
1:55 AM,39.2,39.2,100,29.79,0.2,Calm,Calm,-,N/A,,Overcast,0,2013-04-01 05:55:00
2:15 AM,39.2,39.2,100,29.79,0.2,Calm,Calm,-,N/A,,Overcast,0,2013-04-01 06:15:00
2:35 AM,39.2,39.2,100,29.79,0.2,Calm,Calm,-,N/A,,Overcast,0,2013-04-01 06:35:00
2:55 AM,41.0,39.2,93,29.79,0.2,Calm,Calm,-,N/A,,Overcast,0,2013-04-01 06:55:00
3:15 AM,39.2,39.2,100,29.79,0.2,SSE,5.8,-,N/A,,Overcast,150,2013-04-01 07:15:00
3:35 AM,41.0,39.2,93,29.79,0.2,South,3.5,-,N/A,,Overcast,170,2013-04-01 07:35:00
3:55 AM,41.0,39.2,93,29.79,0.2,Calm,Calm,-,N/A,,Overcast,0,2013-04-01 07:55:00
4:15 AM,39.2,39.2,100,29.79,0.2,Calm,Calm,-,N/A,,Overcast,0,2013-04-01 08:15:00
4:35 AM,39.2,39.2,100,29.79,0.2,Calm,Calm,-,N/A,,Overcast,0,2013-04-01 08:35:00
4:55 AM,39.2,39.2,100,29.79,0.2,Calm,Calm,-,N/A,,Overcast,0,2013-04-01 08:55:00
5:15 AM,39.2,39.2,100,29.79,0.2,Calm,Calm,-,N/A,,Overcast,0,2013-04-01 09:15:00
5:35 AM,39.2,39.2,100,29.78,0.2,SSE,3.5,-,N/A,,Overcast,160,2013-04-01 09:35:00
5:55 AM,39.2,39.2,100,29.78,0.2,South,3.5,-,N/A,,Overcast,180,2013-04-01 09:55:00
6:15 AM,37.4,37.4,100,29.77,0.2,Calm,Calm,-,N/A,,Overcast,0,2013-04-01 10:15:00
6:35 AM,37.4,37.4,100,29.78,0.2,Calm,Calm,-,N/A,,Overcast,0,2013-04-01 10:35:00
6:55 AM,35.6,35.6,100,29.78,0.2,Calm,Calm,-,N/A,,Overcast,0,2013-04-01 10:55:00
7:15 AM,37.4,37.4,100,29.79,0.5,Calm,Calm,-,N/A,,Mostly Cloudy,0,2013-04-01 11:15:00
8:55 AM,46.4,46.4,100,29.79,10.0,Calm,Calm,-,N/A,,Clear,0,2013-04-01 12:55:00
11:55 AM,64.4,37.4,37,29.76,10.0,West,15.0,25.3,N/A,,Partly Cloudy,270,2013-04-01 15:55:00
3:45 PM,55.4,37.4,51,29.77,10.0,NNW,18.4,27.6,N/A,,Mostly Cloudy,330,2013-04-01 19:45:00
4:55 PM,55.4,35.6,47,29.81,10.0,NW,24.2,31.1,N/A,,Partly Cloudy,320,2013-04-01 20:55:00
6:55 PM,48.2,30.2,50,29.88,10.0,NNW,18.4,26.5,N/A,,Clear,330,2013-04-01 22:55:00
7:15 PM,46.4,30.2,53,29.90,10.0,NNW,12.7,20.7,N/A,,Clear,330,2013-04-01 23:15:00
7:35 PM,46.4,30.2,53,29.91,10.0,NW,12.7,21.9,N/A,,Clear,320,2013-04-01 23:35:00
7:55 PM,46.4,28.4,50,29.91,10.0,NNW,11.5,-,N/A,,Clear,330,2013-04-01 23:55:00
8:15 PM,44.6,28.4,53,29.93,10.0,NNW,5.8,-,N/A,,Clear,340,2013-04-02 00:15:00
8:35 PM,44.6,28.4,53,29.94,10.0,North,9.2,-,N/A,,Clear,360,2013-04-02 00:35:00
8:55 PM,44.6,28.4,53,29.95,10.0,NNW,4.6,-,N/A,,Partly Cloudy,340,2013-04-02 00:55:00
9:15 PM,42.8,28.4,57,29.95,10.0,NNW,4.6,-,N/A,,Clear,340,2013-04-02 01:15:00
9:35 PM,44.6,26.6,49,29.96,10.0,NNE,3.5,-,N/A,,Clear,30,2013-04-02 01:35:00
9:55 PM,44.6,24.8,46,29.97,10.0,Calm,Calm,-,N/A,,Scattered Clouds,0,2013-04-02 01:55:00
10:15 PM,42.8,28.4,57,29.97,10.0,Calm,Calm,-,N/A,,Overcast,0,2013-04-02 02:15:00
10:35 PM,39.2,32.0,75,29.97,10.0,Calm,Calm,-,N/A,,Scattered Clouds,0,2013-04-02 02:35:00
10:55 PM,37.4,32.0,81,29.98,10.0,Calm,Calm,-,N/A,,Partly Cloudy,0,2013-04-02 02:55:00
11:15 PM,37.4,30.2,75,29.99,10.0,Calm,Calm,-,N/A,,Scattered Clouds,0,2013-04-02 03:15:00
11:35 PM,39.2,28.4,65,30.00,10.0,NNW,4.6,-,N/A,,Mostly Cloudy,330,2013-04-02 03:35:00
11:55 PM,39.2,24.8,56,30.00,10.0,NNW,6.9,-,N/A,,Mostly Cloudy,330,2013-04-02 03:55:00